When you browse on this site, cookies collect data to enhance your experience and personalize the content and advertising you see.
Visit our Privacy Policy to learn more. By continuing to use the site, you agree to this use of cookies and data.
  • In Belgien
  • Länderverzeichnis
  • Für 7 Tage
  • Wassertemperatur
  • Satellitenkarten
  • Wetterkarte
  • Widgets
  • user-avatar
    Anmelden

    Stündliche Wetter Zabegalovka

    Heute, 23 Mai, Donnerstag

    Zeit Temperatur Niederschläge Wind Luftdruck Luftfeuchtigkeit
    00:00 +11°C° 0 mm 1 m/S 741 mmHg 97%
    01:00 +10°C° 0 mm 0 m/S 741 mmHg 97%
    02:00 +10°C° 0 mm 0 m/S 740 mmHg 97%
    03:00 +10°C° 0 mm 0 m/S 740 mmHg 96%
    04:00 +11°C° 0 mm 0 m/S 740 mmHg 95%
    05:00 +12°C° 0 mm 0 m/S 740 mmHg 93%
    06:00 +15°C° 0 mm 1 m/S 739 mmHg 88%
    07:00 +16°C° 0 mm 1 m/S 739 mmHg 82%
    08:00 +19°C° 0 mm 1 m/S 739 mmHg 76%
    09:00 +18°C° 0.7 mm 2 m/S 740 mmHg 78%
    10:00 +18°C° 0.7 mm 3 m/S 740 mmHg 79%
    11:00 +18°C° 0.7 mm 4 m/S 740 mmHg 80%
    12:00 +17°C° 0.1 mm 4 m/S 740 mmHg 78%
    13:00 +15°C° 0.1 mm 4 m/S 741 mmHg 75%
    14:00 +13°C° 0.1 mm 5 m/S 741 mmHg 73%
    15:00 +13°C° 0 mm 4 m/S 741 mmHg 72%
    16:00 +12°C° 0 mm 4 m/S 742 mmHg 71%
    17:00 +11°C° 0 mm 4 m/S 742 mmHg 70%
    18:00 +10°C° 0 mm 3 m/S 743 mmHg 74%
    19:00 +9°C° 0 mm 2 m/S 743 mmHg 78%
    20:00 +9°C° 0 mm 1 m/S 743 mmHg 82%
    21:00 +7°C° 0 mm 2 m/S 744 mmHg 82%
    22:00 +6°C° 0 mm 2 m/S 744 mmHg 82%
    23:00 +6°C° 0 mm 2 m/S 745 mmHg 82%

    Morgen, 24 Mai, Freitag

    Zeit Temperatur Niederschläge Wind Luftdruck Luftfeuchtigkeit
    00:00 +5°C° 0 mm 2 m/S 745 mmHg 80%
    01:00 +4°C° 0 mm 2 m/S 746 mmHg 78%
    02:00 +4°C° 0 mm 2 m/S 746 mmHg 76%
    03:00 +4°C° 0 mm 2 m/S 746 mmHg 71%
    04:00 +5°C° 0 mm 2 m/S 747 mmHg 67%
    05:00 +5°C° 0 mm 2 m/S 747 mmHg 62%
    06:00 +7°C° 0 mm 3 m/S 747 mmHg 57%
    07:00 +9°C° 0 mm 3 m/S 747 mmHg 51%
    08:00 +10°C° 0 mm 3 m/S 748 mmHg 45%
    09:00 +11°C° 0 mm 3 m/S 748 mmHg 43%
    10:00 +12°C° 0 mm 3 m/S 747 mmHg 41%
    11:00 +13°C° 0 mm 3 m/S 747 mmHg 39%
    12:00 +14°C° 0 mm 3 m/S 747 mmHg 38%
    13:00 +14°C° 0 mm 3 m/S 747 mmHg 38%
    14:00 +14°C° 0 mm 3 m/S 747 mmHg 38%
    15:00 +14°C° 0 mm 3 m/S 747 mmHg 41%
    16:00 +14°C° 0 mm 3 m/S 746 mmHg 43%
    17:00 +14°C° 0 mm 3 m/S 746 mmHg 45%
    18:00 +13°C° 0 mm 3 m/S 746 mmHg 52%
    19:00 +12°C° 0 mm 2 m/S 746 mmHg 60%
    20:00 +10°C° 0 mm 2 m/S 746 mmHg 67%
    21:00 +9°C° 0 mm 3 m/S 746 mmHg 66%
    22:00 +9°C° 0 mm 3 m/S 746 mmHg 65%
    23:00 +9°C° 0 mm 3 m/S 746 mmHg 64%

    übermorgen, 25 Mai, Samstag

    Zeit Temperatur Niederschläge Wind Luftdruck Luftfeuchtigkeit
    00:00 +9°C° 0 mm 3 m/S 745 mmHg 63%
    01:00 +8°C° 0 mm 4 m/S 745 mmHg 63%
    02:00 +8°C° 0 mm 4 m/S 745 mmHg 63%
    03:00 +8°C° 0.2 mm 4 m/S 744 mmHg 68%
    04:00 +9°C° 0.2 mm 3 m/S 744 mmHg 74%
    05:00 +8°C° 0.2 mm 3 m/S 744 mmHg 80%
    06:00 +9°C° 1 mm 3 m/S 743 mmHg 83%
    07:00 +9°C° 1 mm 3 m/S 743 mmHg 87%
    08:00 +8°C° 1 mm 4 m/S 743 mmHg 91%
    09:00 +11°C° 0 mm 4 m/S 743 mmHg 85%
    10:00 +14°C° 0 mm 4 m/S 742 mmHg 79%
    11:00 +17°C° 0 mm 4 m/S 742 mmHg 73%
    12:00 +17°C° 0 mm 4 m/S 742 mmHg 72%
    13:00 +18°C° 0 mm 4 m/S 741 mmHg 70%
    14:00 +18°C° 0 mm 4 m/S 741 mmHg 69%
    15:00 +17°C° 0.4 mm 3 m/S 740 mmHg 76%
    16:00 +17°C° 0.4 mm 3 m/S 740 mmHg 83%
    17:00 +16°C° 0.4 mm 2 m/S 739 mmHg 91%
    18:00 +16°C° 0.1 mm 3 m/S 739 mmHg 91%
    19:00 +14°C° 0.1 mm 3 m/S 738 mmHg 92%
    20:00 +14°C° 0.1 mm 4 m/S 738 mmHg 92%
    21:00 +14°C° 0.4 mm 4 m/S 737 mmHg 94%
    22:00 +14°C° 0.4 mm 4 m/S 737 mmHg 95%
    23:00 +14°C° 0.4 mm 4 m/S 737 mmHg 96%

    26 Mai, Sonntag

    Zeit Temperatur Niederschläge Wind Luftdruck Luftfeuchtigkeit
    00:00 +14°C° 1 mm 4 m/S 736 mmHg 97%
    01:00 +13°C° 1 mm 3 m/S 736 mmHg 97%
    02:00 +13°C° 1 mm 3 m/S 736 mmHg 98%
    03:00 +13°C° 0 mm 3 m/S 736 mmHg 97%
    04:00 +12°C° 0 mm 3 m/S 736 mmHg 96%
    05:00 +12°C° 0 mm 3 m/S 736 mmHg 95%
    06:00 +12°C° 0 mm 3 m/S 736 mmHg 88%
    07:00 +13°C° 0 mm 3 m/S 737 mmHg 81%
    08:00 +14°C° 0 mm 3 m/S 737 mmHg 73%
    09:00 +15°C° 0 mm 4 m/S 737 mmHg 66%
    10:00 +17°C° 0 mm 4 m/S 737 mmHg 59%
    11:00 +18°C° 0 mm 4 m/S 737 mmHg 51%
    12:00 +18°C° 0 mm 4 m/S 737 mmHg 52%
    13:00 +18°C° 0 mm 4 m/S 737 mmHg 53%
    14:00 +18°C° 0 mm 4 m/S 737 mmHg 54%
    15:00 +18°C° 0 mm 4 m/S 737 mmHg 55%
    16:00 +18°C° 0 mm 3 m/S 737 mmHg 57%
    17:00 +18°C° 0 mm 3 m/S 737 mmHg 58%
    18:00 +16°C° 0 mm 2 m/S 737 mmHg 65%
    19:00 +14°C° 0 mm 1 m/S 737 mmHg 73%
    20:00 +13°C° 0 mm 1 m/S 737 mmHg 80%
    21:00 +12°C° 0 mm 1 m/S 737 mmHg 82%
    22:00 +12°C° 0 mm 2 m/S 736 mmHg 84%
    23:00 +12°C° 0 mm 2 m/S 736 mmHg 85%

    27 Mai, Montag

    Zeit Temperatur Niederschläge Wind Luftdruck Luftfeuchtigkeit
    00:00 +12°C° 0.1 mm 2 m/S 736 mmHg 88%
    01:00 +12°C° 0.1 mm 2 m/S 736 mmHg 91%
    02:00 +12°C° 0.1 mm 2 m/S 736 mmHg 93%
    03:00 +10°C° 1.5 mm 2 m/S 736 mmHg 93%
    04:00 +10°C° 1.5 mm 3 m/S 736 mmHg 94%
    05:00 +9°C° 1.5 mm 3 m/S 736 mmHg 94%
    06:00 +8°C° 0.3 mm 4 m/S 736 mmHg 91%
    07:00 +9°C° 0.3 mm 5 m/S 736 mmHg 88%
    08:00 +9°C° 0.3 mm 5 m/S 736 mmHg 85%
    09:00 +9°C° 0.5 mm 6 m/S 737 mmHg 84%
    10:00 +9°C° 0.5 mm 6 m/S 737 mmHg 82%
    11:00 +9°C° 0.5 mm 6 m/S 738 mmHg 81%
    12:00 +11°C° 0.1 mm 6 m/S 738 mmHg 72%
    13:00 +13°C° 0.1 mm 6 m/S 739 mmHg 63%
    14:00 +14°C° 0.1 mm 6 m/S 739 mmHg 54%
    15:00 +14°C° 0 mm 6 m/S 740 mmHg 59%
    16:00 +13°C° 0 mm 5 m/S 740 mmHg 63%
    17:00 +13°C° 0 mm 5 m/S 741 mmHg 67%
    18:00 +12°C° 0 mm 4 m/S 741 mmHg 72%
    19:00 +11°C° 0 mm 3 m/S 742 mmHg 77%
    20:00 +10°C° 0 mm 2 m/S 742 mmHg 82%
    21:00 +9°C° 0 mm 2 m/S 743 mmHg 83%
    22:00 +9°C° 0 mm 2 m/S 743 mmHg 85%
    23:00 +9°C° 0 mm 2 m/S 744 mmHg 86%

    28 Mai, Dienstag

    Zeit Temperatur Niederschläge Wind Luftdruck Luftfeuchtigkeit
    00:00 +8°C° 0 mm 2 m/S 744 mmHg 89%
    01:00 +8°C° 0 mm 2 m/S 745 mmHg 93%
    02:00 +7°C° 0 mm 2 m/S 745 mmHg 96%
    03:00 +8°C° 0 mm 2 m/S 746 mmHg 93%
    04:00 +8°C° 0 mm 2 m/S 746 mmHg 90%
    05:00 +9°C° 0 mm 2 m/S 747 mmHg 87%
    06:00 +12°C° 0 mm 2 m/S 747 mmHg 78%
    07:00 +14°C° 0 mm 2 m/S 747 mmHg 70%
    08:00 +16°C° 0 mm 3 m/S 748 mmHg 62%
    09:00 +17°C° 0 mm 3 m/S 748 mmHg 58%
    10:00 +18°C° 0 mm 3 m/S 748 mmHg 53%
    11:00 +20°C° 0 mm 2 m/S 748 mmHg 49%
    12:00 +20°C° 0 mm 2 m/S 747 mmHg 48%
    13:00 +21°C° 0 mm 2 m/S 747 mmHg 47%
    14:00 +23°C° 0 mm 2 m/S 747 mmHg 46%
    15:00 +21°C° 0 mm 2 m/S 747 mmHg 52%
    16:00 +21°C° 0 mm 2 m/S 747 mmHg 58%
    17:00 +21°C° 0 mm 2 m/S 747 mmHg 64%
    18:00 +20°C° 0 mm 2 m/S 747 mmHg 67%
    19:00 +19°C° 0 mm 2 m/S 747 mmHg 71%
    20:00 +18°C° 0 mm 3 m/S 746 mmHg 74%
    21:00 +17°C° 0 mm 3 m/S 746 mmHg 75%
    22:00 +17°C° 0 mm 3 m/S 746 mmHg 76%
    23:00 +17°C° 0 mm 3 m/S 746 mmHg 77%
    Mehr zeigen